Location: Aix-en-Ergny
(50.5839°N, 1.9996°E)
Time: 20:16:56
(UTC+00:00)

USA 267 - Pass Details

Date: 23 October 2019
Orbit: 1101 x 1106 km, 123.0° (Epoch: 12 November)

Event Time Altitude Azimuth Distance (km) Brightness Sun altitude
Rises 05:40:39 0° 66° (ENE) 3,923 7.3 -8.0°
Reaches altitude 10° 05:43:10 10° 62° (ENE) 2,965 6.4 -7.7°
Maximum altitude 05:49:33 58° 346° (NNW) 1,270 3.5 -6.7°
Drops below altitude 10° 05:55:56 10° 270° (W) 2,963 4.9 -5.7°
Enters shadow 05:57:04 - 268° (W) 3,388 5.2 -5.5°
